Weather History for KAFF - May, 2013

Change the Weather History Date:

Monday, May 6, 2013

  Actual Average Record
Temperature  
Mean Temperature 46 °F -  
Max Temperature 63 °F 61 °F 82 °F (2000)
Min Temperature 29 °F 35 °F 21 °F (1999)
Degree Days  
Heating Degree Days 19    
Moisture  
Dew Point 26 °F    
Average Humidity 45    
Maximum Humidity 78    
Minimum Humidity 23    
Precipitation  
Precipitation 0.00 in - - ()
Sea Level Pressure  
Sea Level Pressure 29.98 in    
Wind  
Wind Speed 7 mph (ESE)    
Max Wind Speed 20 mph    
Max Gust Speed 24 mph    
Visibility 10 miles    
Events      
Averages and records for this station are not official NWS values.
T = Trace of Precipitation, MM = Missing Value Source: NWS Daily Summary

Daily Weather History Graph

Daily Weather History Graph

Search for Another Location

Airport or City:

Trip Planner

Search our weather history database for the weather conditions in past years. The results will help you decide how hot, cold, wet, or windy it might be!

Date:

Astronomy

May. 06, 2013 Rise Set
Actual Time 5:55 AM MDT 7:57 PM MDT
Civil Twilight 5:25 AM MDT 8:26 PM MDT
Nautical Twilight 4:50 AM MDT 9:02 PM MDT
Astronomical Twilight 4:11 AM MDT 9:41 PM MDT
Moon 3:56 AM MDT (5/6) 5:01 PM MDT (5/6)
Length of Visible Light 15h 00m
Length of Day
14h 01m
Waning Crescent, 10% of the Moon is Illuminated
May 6
Waning Crescent
May 9
New
May 17
First Quarter
May 24
Full
May 31
Last Quarter

Hourly Weather History & Observations

Time (MDT) Temp. Windchill Dew Point Humidity Pressure Visibility Wind Dir Wind Speed Gust Speed Precip Events Conditions
2:58 AM 30.0 °F 25.2 °F 21.9 °F 72% 30.10 in 10.0 mi North 4.6 mph - N/A   Clear
3:58 AM 30.6 °F 23.8 °F 21.2 °F 68% 30.08 in 10.0 mi NNW 6.9 mph - N/A   Clear
4:58 AM 29.7 °F 26.1 °F 21.4 °F 71% 30.07 in 10.0 mi North 3.5 mph - N/A   Partly Cloudy
5:58 AM 32.5 °F 27.1 °F 22.5 °F 66% 30.07 in 10.0 mi North 5.8 mph - N/A   Clear
6:58 AM 35.4 °F - 23.0 °F 61% 30.06 in 10.0 mi NNE 2.3 mph - N/A   Mostly Cloudy
7:58 AM 44.6 °F 42.2 °F 19.8 °F 37% 30.03 in 10.0 mi Variable 4.6 mph - N/A   Mostly Cloudy
8:58 AM 48.0 °F - 18.1 °F 31% 30.01 in 10.0 mi South 5.8 mph - N/A   Scattered Clouds
9:58 AM 50.7 °F - 19.8 °F 30% 30.03 in 10.0 mi Variable 3.5 mph - N/A   Partly Cloudy
10:55 AM 55.4 °F - 21.2 °F 26% 30.08 in 10.0 mi SSE 9.2 mph - N/A   Scattered Clouds
11:55 AM 59.0 °F - 21.2 °F 23% 30.07 in 10.0 mi South 11.5 mph - N/A   Scattered Clouds
12:58 PM 58.8 °F - 23.4 °F 26% 29.95 in 10.0 mi SE 9.2 mph - N/A   Mostly Cloudy
1:58 PM 59.0 °F - 23.4 °F 25% 29.95 in 10.0 mi South 6.9 mph - N/A   Mostly Cloudy
2:58 PM 63.0 °F - 27.1 °F 26% 29.92 in 10.0 mi SE 12.7 mph 20.7 mph N/A   Partly Cloudy
3:58 PM 61.7 °F - 27.3 °F 27% 29.90 in 10.0 mi SE 12.7 mph 18.4 mph N/A   Scattered Clouds
4:58 PM 60.4 °F - 27.3 °F 28% 29.89 in 10.0 mi SSE 11.5 mph - N/A   Partly Cloudy
5:58 PM 59.0 °F - 26.2 °F 29% 29.89 in 10.0 mi SE 9.2 mph - N/A   Partly Cloudy
6:58 PM 57.7 °F - 29.1 °F 34% 29.89 in 10.0 mi SE 10.4 mph - N/A   Partly Cloudy
7:58 PM 54.1 °F - 34.7 °F 48% 29.87 in 10.0 mi SSE 19.6 mph 24.2 mph N/A   Mostly Cloudy
8:58 PM 52.0 °F - 35.1 °F 53% 29.88 in 10.0 mi SE 9.2 mph - N/A   Clear
9:58 PM 49.3 °F - 34.5 °F 57% 29.89 in 10.0 mi NNW 3.5 mph - N/A   Clear
10:58 PM 41.9 °F 37.5 °F 34.0 °F 73% 30.00 in 10.0 mi North 6.9 mph - N/A   Clear
11:58 PM 40.1 °F 35.3 °F 33.6 °F 78% 29.89 in 10.0 mi NNW 6.9 mph - N/A   Clear